DW1955 Cutchogue NY US current weather conditions

sailwx.info

Wind from 346

Air temperature 16.7° C

Last reported at 2019-Sep-17 04:03 UTC.
Time now 2019-Sep-17 04:17 UTC

Location: N 41°01' W 072°28'.
View on Google Maps.

See reports from other nearby stations

  
Tides and Currents Weather Stations Pressure Air Temp Water Temp Dewpoint Dewpoint Depression Visibility Wind Speed Wind Dir Waves Ship Positions
date/time (UTC)wind fromknots sea level pressurealtimeterstation pressurevisibilityair tempwater tempwave heightnotes
2019-Sep-17 04:03 346 16.7
2019-Sep-17 03:48 007 17.2
2019-Sep-17 03:33 357 17.2
2019-Sep-17 03:18 028 0 gusting 3 17.8
2019-Sep-17 03:03 015 17.8
2019-Sep-17 02:48 324 0 gusting 2 17.8
2019-Sep-17 02:33 291 0 gusting 3 18.3
2019-Sep-17 02:18 333 1 gusting 6 18.3
2019-Sep-17 02:03 305 0 gusting 2 18.9
2019-Sep-17 01:48 305 1 gusting 4 19.4
2019-Sep-17 01:33 18.9
2019-Sep-17 01:18 240 18.3
2019-Sep-17 01:03 240 17.2
2019-Sep-17 00:48 240 17.2
2019-Sep-17 00:33 240 17.8
2019-Sep-17 00:18 240 17.8
2019-Sep-17 00:03 240 17.8
2019-Sep-16 23:48 240 17.8
2019-Sep-16 23:33 240 18.3
2019-Sep-16 23:18 240 18.9
2019-Sep-16 23:03 240 19.4
2019-Sep-16 22:48 240 20.0
2019-Sep-16 22:33 247 20.0
2019-Sep-16 22:18 264 20.6
2019-Sep-16 22:03 210 20.6
2019-Sep-16 21:48 235 1 gusting 5 20.6
2019-Sep-16 21:33 205 21.1
2019-Sep-16 21:18 263 1 gusting 4 21.1
2019-Sep-16 21:03 264 2 gusting 4 21.7
2019-Sep-16 20:48 271 0 gusting 5 21.7
2019-Sep-16 20:33 238 0 gusting 2 21.1
2019-Sep-16 20:18 253 0 gusting 3 21.1
2019-Sep-16 20:03 223 0 gusting 2 21.1
2019-Sep-16 19:48 250 1 gusting 4 22.2
2019-Sep-16 19:33 253 0 gusting 2 21.1
2019-Sep-16 19:18 245 21.1
2019-Sep-16 19:03 279 0 gusting 1 21.1
2019-Sep-16 18:48 246 0 gusting 2 21.1
2019-Sep-16 18:33 272 21.1
2019-Sep-16 18:18 272 21.1
2019-Sep-16 18:03 272 0 gusting 1 20.6
2019-Sep-16 17:48 272 20.6
2019-Sep-16 17:33 266 21.1
2019-Sep-16 17:18 302 1 gusting 3 21.7
2019-Sep-16 17:03 357 0 gusting 2 21.7
2019-Sep-16 16:48 304 0 gusting 3 20.6
2019-Sep-16 16:33 299 0 gusting 2 20.6
2019-Sep-16 16:18 291 0 gusting 2 20.0
2019-Sep-16 16:03 302 20.6
2019-Sep-16 15:48 326 0 gusting 3 20.6
2019-Sep-16 15:33 274 0 gusting 1 20.6
2019-Sep-16 15:18 279 1 gusting 2 20.0
2019-Sep-16 15:03 263 20.6
2019-Sep-16 14:48 329 0 gusting 2 20.6
2019-Sep-16 14:33 295 1 gusting 2 21.1
2019-Sep-16 14:18 332 20.0
2019-Sep-16 14:03 332 20.0
2019-Sep-16 13:48 296 19.4
2019-Sep-16 13:33 296 19.4
2019-Sep-16 13:18 296 19.4
2019-Sep-16 13:03 296 19.4
2019-Sep-16 12:48 296 19.4
2019-Sep-16 12:33 296 18.9
2019-Sep-16 12:18 296 18.9
2019-Sep-16 12:03 296 18.9
2019-Sep-16 11:48 296 18.9
2019-Sep-16 11:33 296 18.3
2019-Sep-16 11:18 296 18.3
2019-Sep-16 11:03 296 17.8
2019-Sep-16 10:48 296 17.8
2019-Sep-16 10:33 296 17.8
2019-Sep-16 10:18 296 17.8
2019-Sep-16 10:03 296 17.8
2019-Sep-16 09:48 296 17.8
2019-Sep-16 09:33 296 17.8
2019-Sep-16 09:18 296 17.8
2019-Sep-16 09:03 296 17.8
2019-Sep-16 08:48 296 17.8
2019-Sep-16 08:33 296 17.8
2019-Sep-16 08:18 296 17.8
2019-Sep-16 08:03 296 17.8
2019-Sep-16 07:48 296 17.2
2019-Sep-16 07:33 296 17.2
2019-Sep-16 07:18 296 17.2
2019-Sep-16 07:03 296 17.2
2019-Sep-16 06:48 296 17.2
2019-Sep-16 06:33 296 17.8
2019-Sep-16 06:18 296 17.8
2019-Sep-16 06:03 296 17.8
2019-Sep-16 05:48 296 17.8
2019-Sep-16 05:33 296 17.8
2019-Sep-16 05:18 296 17.8
2019-Sep-16 05:03 296 18.3
2019-Sep-16 04:48 296 18.3
2019-Sep-16 04:33 296 18.3
2019-Sep-16 04:18 296 18.3
2019-Sep-16 04:03 296 18.9
2019-Sep-16 03:48 296 18.9
2019-Sep-16 03:33 301 18.9
2019-Sep-16 03:18 301 19.4
2019-Sep-16 03:03 304 19.4
2019-Sep-16 02:48 303 19.4
2019-Sep-16 02:33 303 19.4
2019-Sep-16 02:18 303 19.4
2019-Sep-16 02:03 145 19.4
2019-Sep-16 01:48 270 19.4
2019-Sep-16 01:33 208 20.0
2019-Sep-16 01:18 198 20.0
2019-Sep-16 01:03 240 20.0
2019-Sep-16 00:48 176 20.0
2019-Sep-16 00:33 167 20.0
2019-Sep-16 00:18 138 20.0
2019-Sep-16 00:03 138 20.6
2019-Sep-15 23:48 138 20.6
2019-Sep-15 23:33 138 21.1
2019-Sep-15 23:18 138 21.1
2019-Sep-15 23:03 135 21.7
2019-Sep-15 22:48 135 0 gusting 2 21.7
2019-Sep-15 22:33 129 22.2
2019-Sep-15 22:18 175 0 gusting 1 22.8
2019-Sep-15 22:03 092 22.8
2019-Sep-15 21:48 325 23.3
2019-Sep-15 21:33 274 0 gusting 2 23.3
2019-Sep-15 21:18 147 0 gusting 3 24.4
2019-Sep-15 21:03 280 0 gusting 3 24.4
2019-Sep-15 20:48 077 0 gusting 2 25.0
2019-Sep-15 20:33 297 0 gusting 5 25.6
2019-Sep-15 20:18 320 26.1
2019-Sep-15 20:03 241 0 gusting 2 25.6
2019-Sep-15 19:48 283 1 gusting 4 25.0
2019-Sep-15 19:33 248 0 gusting 3 25.6
2019-Sep-15 19:18 341 1 gusting 5 25.0
2019-Sep-15 19:03 256 1 gusting 5 25.0
2019-Sep-15 18:48 257 1 gusting 3 25.0
2019-Sep-15 18:33 260 0 gusting 3 25.0
2019-Sep-15 18:18 240 1 gusting 2 25.0
2019-Sep-15 18:03 241 1 gusting 3 25.0
2019-Sep-15 17:48 072 0 gusting 3 25.0
2019-Sep-15 17:33 283 25.0
2019-Sep-15 17:18 082 0 gusting 2 25.0
2019-Sep-15 17:03 205 23.3
2019-Sep-15 16:48 312 0 gusting 2 24.4
2019-Sep-15 16:33 344 0 gusting 2 23.9
2019-Sep-15 16:18 224 1 gusting 2 22.8
2019-Sep-15 16:03 270 1 gusting 2 22.8
2019-Sep-15 15:48 293 0 gusting 2 22.8
2019-Sep-15 15:33 281 0 gusting 1 22.8
2019-Sep-15 15:18 109 0 gusting 3 22.8
2019-Sep-15 15:03 282 1 gusting 3 22.2
2019-Sep-15 14:48 312 0 gusting 2 22.2
2019-Sep-15 14:33 293 0 gusting 2 22.2
2019-Sep-15 14:18 313 0 gusting 2 21.7
2019-Sep-15 14:03 037 21.7
2019-Sep-15 13:48 286 21.1
2019-Sep-15 13:33 246 1 gusting 3 21.7
2019-Sep-15 13:18 21.1
2019-Sep-15 13:03 309 20.6
2019-Sep-15 12:48 248 0 gusting 1 20.6
2019-Sep-15 12:33 046 20.0
2019-Sep-15 12:18 046 19.4
2019-Sep-15 12:03 066 19.4
2019-Sep-15 11:48 066 19.4
2019-Sep-15 11:33 066 20.0
2019-Sep-15 11:18 066 20.0
2019-Sep-15 11:03 066 20.0
2019-Sep-15 10:48 066 20.0
2019-Sep-15 10:33 066 20.6
2019-Sep-15 10:18 066 20.6
2019-Sep-15 10:03 066 20.0
2019-Sep-15 09:48 066 20.6
2019-Sep-15 09:33 066 20.6
2019-Sep-15 09:18 066 20.6
2019-Sep-15 09:03 066 20.6
2019-Sep-15 08:48 066 20.6
2019-Sep-15 08:33 066 20.6
2019-Sep-15 08:18 066 20.6
2019-Sep-15 08:03 066 20.6
2019-Sep-15 07:48 066 20.6
2019-Sep-15 07:33 067 20.6
2019-Sep-15 07:18 233 0 gusting 3 20.6
2019-Sep-15 07:03 304 0 gusting 2 20.6
2019-Sep-15 06:48 230 20.6
2019-Sep-15 06:33 177 20.6
2019-Sep-15 06:18 224 0 gusting 2 20.6
2019-Sep-15 06:03 124 0 gusting 4 20.6
2019-Sep-15 05:48 217 0 gusting 1 20.6
2019-Sep-15 05:33 123 0 gusting 3 20.6
2019-Sep-15 05:18 260 1 gusting 5 20.6
2019-Sep-15 05:03 250 1 gusting 3 20.6
2019-Sep-15 04:48 238 0 gusting 6 20.6
2019-Sep-15 04:33 275 1 gusting 3 20.6
2019-Sep-15 04:18 108 0 gusting 2 20.6
2019-Sep-15 04:03 157 20.6